contact:dominique.lefevre@mio.osupytheas.fr, maurice.libes@osupytheas.fr, didier.mallarino@osupytheas.fr
Project:EMSO http://www.emso-fr.org/EMSO-France
Depth: 2436.0 m
Title:EMSO Ligure Ouest : Data MII capteur OXYGEN
DateTime,Latitude,Longitude,Optode-Type,Optode_Serial,Oxygen,Saturation_Oxygen,Temperature
DateTime,Latitude,Longitude,Optode-Type,Optode_Serial,µmol.l-1,%,degC
2017-10-09T00:01:59,42.805,6.029,4330,1995,200.066,61.180,13.286
2017-10-09T00:04:59,42.805,6.029,4330,1995,199.986,61.155,13.285
2017-10-09T00:07:59,42.805,6.029,4330,1995,199.987,61.156,13.286
2017-10-09T00:10:59,42.805,6.029,4330,1995,200.071,61.181,13.285
2017-10-09T00:13:59,42.805,6.029,4330,1995,200.038,61.171,13.286
2017-10-09T00:16:59,42.805,6.029,4330,1995,200.059,61.177,13.285
2017-10-09T00:19:59,42.805,6.029,4330,1995,200.085,61.185,13.285
2017-10-09T00:22:59,42.805,6.029,4330,1995,200.074,61.182,13.285
2017-10-09T00:25:59,42.805,6.029,4330,1995,200.109,61.193,13.286
2017-10-09T00:28:59,42.805,6.029,4330,1995,200.056,61.177,13.286
2017-10-09T00:31:59,42.805,6.029,4330,1995,199.964,61.149,13.286
2017-10-09T00:34:59,42.805,6.029,4330,1995,200.002,61.160,13.286
2017-10-09T00:37:59,42.805,6.029,4330,1995,199.940,61.141,13.286
2017-10-09T00:40:59,42.805,6.029,4330,1995,199.880,61.123,13.286
2017-10-09T00:43:59,42.805,6.029,4330,1995,199.941,61.141,13.285
2017-10-09T00:46:59,42.805,6.029,4330,1995,199.987,61.155,13.285
2017-10-09T00:49:59,42.805,6.029,4330,1995,200.063,61.179,13.285
2017-10-09T00:52:59,42.805,6.029,4330,1995,200.035,61.170,13.285
2017-10-09T00:55:59,42.805,6.029,4330,1995,200.125,61.197,13.285
2017-10-09T00:58:59,42.805,6.029,4330,1995,200.065,61.179,13.285
2017-10-09T01:01:59,42.805,6.029,4330,1995,200.053,61.176,13.286
2017-10-09T01:04:59,42.805,6.029,4330,1995,200.050,61.175,13.285
2017-10-09T01:07:59,42.805,6.029,4330,1995,200.124,61.197,13.285
2017-10-09T01:10:59,42.805,6.029,4330,1995,200.120,61.196,13.285
2017-10-09T01:13:59,42.805,6.029,4330,1995,200.095,61.188,13.285
2017-10-09T01:16:59,42.805,6.029,4330,1995,200.088,61.186,13.285
2017-10-09T01:19:59,42.805,6.029,4330,1995,200.082,61.184,13.286
2017-10-09T01:22:59,42.805,6.029,4330,1995,200.069,61.180,13.285
2017-10-09T01:25:59,42.805,6.029,4330,1995,199.977,61.152,13.286
2017-10-09T01:28:59,42.805,6.029,4330,1995,199.967,61.149,13.286
2017-10-09T01:31:59,42.805,6.029,4330,1995,200.000,61.159,13.285
2017-10-09T01:34:59,42.805,6.029,4330,1995,199.989,61.156,13.285
2017-10-09T01:37:59,42.805,6.029,4330,1995,200.049,61.174,13.285
2017-10-09T01:40:59,42.805,6.029,4330,1995,199.994,61.157,13.286
2017-10-09T01:43:59,42.805,6.029,4330,1995,200.023,61.166,13.285
2017-10-09T01:46:59,42.805,6.029,4330,1995,200.043,61.173,13.286
2017-10-09T01:49:59,42.805,6.029,4330,1995,200.104,61.191,13.285
2017-10-09T01:52:59,42.805,6.029,4330,1995,200.073,61.181,13.285
2017-10-09T01:55:59,42.805,6.029,4330,1995,199.980,61.153,13.285
2017-10-09T01:58:59,42.805,6.029,4330,1995,199.985,61.155,13.285
2017-10-09T02:01:59,42.805,6.029,4330,1995,200.061,61.178,13.285
2017-10-09T02:04:59,42.805,6.029,4330,1995,200.032,61.169,13.285
2017-10-09T02:07:59,42.805,6.029,4330,1995,200.023,61.166,13.285
2017-10-09T02:10:59,42.805,6.029,4330,1995,200.020,61.165,13.285
2017-10-09T02:13:59,42.805,6.029,4330,1995,200.020,61.165,13.285
2017-10-09T02:16:59,42.805,6.029,4330,1995,200.127,61.198,13.285
2017-10-09T02:19:59,42.805,6.029,4330,1995,200.071,61.181,13.285
2017-10-09T02:22:59,42.805,6.029,4330,1995,200.036,61.170,13.285
2017-10-09T02:25:59,42.805,6.029,4330,1995,200.088,61.186,13.285
2017-10-09T02:28:59,42.805,6.029,4330,1995,200.038,61.171,13.285
2017-10-09T02:31:59,42.805,6.029,4330,1995,200.047,61.174,13.285
2017-10-09T02:34:59,42.805,6.029,4330,1995,200.084,61.185,13.285
2017-10-09T02:37:59,42.805,6.029,4330,1995,200.028,61.168,13.285
2017-10-09T02:40:59,42.805,6.029,4330,1995,200.063,61.178,13.285
2017-10-09T02:43:59,42.805,6.029,4330,1995,199.964,61.148,13.285
2017-10-09T02:46:59,42.805,6.029,4330,1995,199.983,61.154,13.285
2017-10-09T02:49:59,42.805,6.029,4330,1995,199.995,61.158,13.285
2017-10-09T02:52:59,42.805,6.029,4330,1995,200.071,61.180,13.285
2017-10-09T02:55:59,42.805,6.029,4330,1995,200.058,61.177,13.285
2017-10-09T02:58:59,42.805,6.029,4330,1995,200.021,61.165,13.285
2017-10-09T03:01:59,42.805,6.029,4330,1995,200.060,61.177,13.285
2017-10-09T03:04:59,42.805,6.029,4330,1995,200.133,61.199,13.285
2017-10-09T03:07:59,42.805,6.029,4330,1995,200.192,61.217,13.285
2017-10-09T03:10:59,42.805,6.029,4330,1995,200.131,61.199,13.285
2017-10-09T03:13:59,42.805,6.029,4330,1995,200.182,61.214,13.285
2017-10-09T03:16:59,42.805,6.029,4330,1995,200.258,61.238,13.285
2017-10-09T03:19:59,42.805,6.029,4330,1995,200.326,61.258,13.285
2017-10-09T03:22:59,42.805,6.029,4330,1995,200.257,61.237,13.285
2017-10-09T03:25:59,42.805,6.029,4330,1995,200.248,61.235,13.285
2017-10-09T03:28:59,42.805,6.029,4330,1995,200.361,61.269,13.285
2017-10-09T03:31:59,42.805,6.029,4330,1995,200.344,61.264,13.285
2017-10-09T03:34:59,42.805,6.029,4330,1995,200.401,61.281,13.285
2017-10-09T03:37:59,42.805,6.029,4330,1995,200.402,61.281,13.285
2017-10-09T03:40:59,42.805,6.029,4330,1995,200.440,61.293,13.285
2017-10-09T03:43:59,42.805,6.029,4330,1995,200.418,61.286,13.285
2017-10-09T03:46:59,42.805,6.029,4330,1995,200.446,61.295,13.285
2017-10-09T03:49:59,42.805,6.029,4330,1995,200.531,61.321,13.285
2017-10-09T03:52:59,42.805,6.029,4330,1995,200.511,61.315,13.285
2017-10-09T03:55:59,42.805,6.029,4330,1995,200.451,61.297,13.285
2017-10-09T03:58:59,42.805,6.029,4330,1995,200.459,61.299,13.285
2017-10-09T04:01:59,42.805,6.029,4330,1995,200.544,61.325,13.285
2017-10-09T04:04:59,42.805,6.029,4330,1995,200.507,61.314,13.285
2017-10-09T04:07:59,42.805,6.029,4330,1995,200.511,61.315,13.285
2017-10-09T04:10:59,42.805,6.029,4330,1995,200.537,61.323,13.285
2017-10-09T04:13:59,42.805,6.029,4330,1995,200.589,61.339,13.285
2017-10-09T04:16:59,42.805,6.029,4330,1995,200.587,61.338,13.285
2017-10-09T04:19:59,42.805,6.029,4330,1995,200.528,61.320,13.285
2017-10-09T04:22:59,42.805,6.029,4330,1995,200.562,61.331,13.285
2017-10-09T04:25:59,42.805,6.029,4330,1995,200.587,61.338,13.285
2017-10-09T04:28:59,42.805,6.029,4330,1995,200.566,61.332,13.285
2017-10-09T04:31:59,42.805,6.029,4330,1995,200.572,61.334,13.285
2017-10-09T04:34:59,42.805,6.029,4330,1995,200.576,61.335,13.285
2017-10-09T04:37:59,42.805,6.029,4330,1995,200.601,61.342,13.285
2017-10-09T04:40:58,42.805,6.029,4330,1995,200.565,61.332,13.285
2017-10-09T04:43:58,42.805,6.029,4330,1995,200.578,61.336,13.285
2017-10-09T04:46:58,42.805,6.029,4330,1995,200.529,61.321,13.285
2017-10-09T04:49:58,42.805,6.029,4330,1995,200.620,61.348,13.285
2017-10-09T04:52:58,42.805,6.029,4330,1995,200.657,61.360,13.285
2017-10-09T04:55:58,42.805,6.029,4330,1995,200.666,61.362,13.285
2017-10-09T04:58:58,42.805,6.029,4330,1995,200.614,61.346,13.285
2017-10-09T05:01:58,42.805,6.029,4330,1995,200.593,61.340,13.285
2017-10-09T05:04:58,42.805,6.029,4330,1995,200.633,61.352,13.285
2017-10-09T05:07:58,42.805,6.029,4330,1995,200.683,61.368,13.285
2017-10-09T05:10:58,42.805,6.029,4330,1995,200.722,61.379,13.285
2017-10-09T05:13:58,42.805,6.029,4330,1995,200.689,61.369,13.285
2017-10-09T05:16:58,42.805,6.029,4330,1995,200.668,61.363,13.285
2017-10-09T05:19:58,42.805,6.029,4330,1995,200.674,61.365,13.285
2017-10-09T05:22:58,42.805,6.029,4330,1995,200.662,61.361,13.285
2017-10-09T05:25:58,42.805,6.029,4330,1995,200.731,61.382,13.285
2017-10-09T05:28:58,42.805,6.029,4330,1995,200.671,61.364,13.285
2017-10-09T05:31:58,42.805,6.029,4330,1995,200.748,61.387,13.285
2017-10-09T05:34:58,42.805,6.029,4330,1995,200.696,61.372,13.285
2017-10-09T05:37:58,42.805,6.029,4330,1995,200.710,61.376,13.285
2017-10-09T05:40:58,42.805,6.029,4330,1995,200.688,61.369,13.285
2017-10-09T05:43:58,42.805,6.029,4330,1995,200.645,61.356,13.285
2017-10-09T05:46:58,42.805,6.029,4330,1995,200.672,61.364,13.285
2017-10-09T05:49:58,42.805,6.029,4330,1995,200.764,61.392,13.285
2017-10-09T05:52:58,42.805,6.029,4330,1995,200.722,61.379,13.285
2017-10-09T05:55:58,42.805,6.029,4330,1995,200.748,61.387,13.285
2017-10-09T05:58:58,42.805,6.029,4330,1995,200.645,61.356,13.285
2017-10-09T06:01:58,42.805,6.029,4330,1995,200.659,61.360,13.285
2017-10-09T06:04:58,42.805,6.029,4330,1995,200.703,61.374,13.285
2017-10-09T06:07:58,42.805,6.029,4330,1995,200.768,61.394,13.285
2017-10-09T06:10:58,42.805,6.029,4330,1995,200.719,61.379,13.285
2017-10-09T06:13:58,42.805,6.029,4330,1995,200.710,61.376,13.285
2017-10-09T06:16:58,42.805,6.029,4330,1995,200.703,61.374,13.285
2017-10-09T06:19:58,42.805,6.029,4330,1995,200.685,61.368,13.285
2017-10-09T06:22:58,42.805,6.029,4330,1995,200.660,61.360,13.285
2017-10-09T06:25:58,42.805,6.029,4330,1995,200.702,61.374,13.285
2017-10-09T06:28:58,42.805,6.029,4330,1995,200.708,61.375,13.285
2017-10-09T06:31:58,42.805,6.029,4330,1995,200.681,61.367,13.285
2017-10-09T06:34:58,42.805,6.029,4330,1995,200.709,61.375,13.285
2017-10-09T06:37:58,42.805,6.029,4330,1995,200.766,61.393,13.285
2017-10-09T06:40:58,42.805,6.029,4330,1995,200.728,61.381,13.285
2017-10-09T06:43:58,42.805,6.029,4330,1995,200.659,61.360,13.285
2017-10-09T06:46:58,42.805,6.029,4330,1995,200.705,61.374,13.285
2017-10-09T06:49:58,42.805,6.029,4330,1995,200.699,61.372,13.285
2017-10-09T06:52:58,42.805,6.029,4330,1995,200.725,61.380,13.285
2017-10-09T06:55:58,42.805,6.029,4330,1995,200.811,61.407,13.285
2017-10-09T06:58:58,42.805,6.029,4330,1995,200.735,61.383,13.285
2017-10-09T07:01:58,42.805,6.029,4330,1995,200.713,61.377,13.285
2017-10-09T07:04:58,42.805,6.029,4330,1995,200.716,61.378,13.285
2017-10-09T07:07:58,42.805,6.029,4330,1995,200.731,61.382,13.285
2017-10-09T07:10:58,42.805,6.029,4330,1995,200.768,61.393,13.285
2017-10-09T07:13:58,42.805,6.029,4330,1995,200.787,61.399,13.285
2017-10-09T07:16:58,42.805,6.029,4330,1995,200.798,61.403,13.285
2017-10-09T07:19:58,42.805,6.029,4330,1995,200.775,61.396,13.285
2017-10-09T07:22:58,42.805,6.029,4330,1995,200.757,61.390,13.285
2017-10-09T07:25:58,42.805,6.029,4330,1995,200.781,61.398,13.285
2017-10-09T07:28:58,42.805,6.029,4330,1995,200.757,61.390,13.285
2017-10-09T07:31:58,42.805,6.029,4330,1995,200.742,61.386,13.285
2017-10-09T07:34:58,42.805,6.029,4330,1995,200.769,61.394,13.285
2017-10-09T07:37:58,42.805,6.029,4330,1995,200.786,61.399,13.285
2017-10-09T07:40:58,42.805,6.029,4330,1995,200.788,61.400,13.285
2017-10-09T07:43:58,42.805,6.029,4330,1995,200.786,61.399,13.285
2017-10-09T07:46:58,42.805,6.029,4330,1995,200.830,61.413,13.285
2017-10-09T07:49:58,42.805,6.029,4330,1995,200.744,61.386,13.285
2017-10-09T07:52:58,42.805,6.029,4330,1995,200.799,61.403,13.285
2017-10-09T07:55:58,42.805,6.029,4330,1995,200.782,61.398,13.285
2017-10-09T07:58:58,42.805,6.029,4330,1995,200.748,61.387,13.285
2017-10-09T08:01:58,42.805,6.029,4330,1995,200.802,61.404,13.285
2017-10-09T08:04:58,42.805,6.029,4330,1995,200.805,61.405,13.285
2017-10-09T08:07:58,42.805,6.029,4330,1995,200.759,61.391,13.285
2017-10-09T08:10:58,42.805,6.029,4330,1995,200.729,61.382,13.285
2017-10-09T08:13:58,42.805,6.029,4330,1995,200.725,61.380,13.285
2017-10-09T08:16:58,42.805,6.029,4330,1995,200.738,61.384,13.285
2017-10-09T08:19:58,42.805,6.029,4330,1995,200.780,61.397,13.285
2017-10-09T08:22:58,42.805,6.029,4330,1995,200.792,61.400,13.285
2017-10-09T08:25:58,42.805,6.029,4330,1995,200.784,61.398,13.285
2017-10-09T08:28:58,42.805,6.029,4330,1995,200.756,61.390,13.285
2017-10-09T08:31:58,42.805,6.029,4330,1995,200.818,61.409,13.285
2017-10-09T08:34:58,42.805,6.029,4330,1995,200.695,61.371,13.285
2017-10-09T08:37:58,42.805,6.029,4330,1995,200.744,61.386,13.285
2017-10-09T08:40:58,42.805,6.029,4330,1995,200.762,61.392,13.285
2017-10-09T08:43:58,42.805,6.029,4330,1995,200.768,61.394,13.285
2017-10-09T08:46:58,42.805,6.029,4330,1995,200.730,61.382,13.285
2017-10-09T08:49:58,42.805,6.029,4330,1995,200.624,61.350,13.285
2017-10-09T08:52:58,42.805,6.029,4330,1995,200.765,61.393,13.285
2017-10-09T08:55:58,42.805,6.029,4330,1995,200.708,61.375,13.285
2017-10-09T08:58:58,42.805,6.029,4330,1995,200.708,61.375,13.285
2017-10-09T09:01:58,42.805,6.029,4330,1995,200.666,61.362,13.285
2017-10-09T09:04:58,42.805,6.029,4330,1995,200.676,61.365,13.285
2017-10-09T09:07:58,42.805,6.029,4330,1995,200.616,61.347,13.285
2017-10-09T09:10:58,42.805,6.029,4330,1995,200.642,61.355,13.285
2017-10-09T09:13:58,42.805,6.029,4330,1995,200.699,61.372,13.285
2017-10-09T09:16:58,42.805,6.029,4330,1995,200.673,61.364,13.285
2017-10-09T09:19:58,42.805,6.029,4330,1995,200.652,61.358,13.285
2017-10-09T09:22:58,42.805,6.029,4330,1995,200.609,61.345,13.285
2017-10-09T09:25:58,42.805,6.029,4330,1995,200.674,61.365,13.285
2017-10-09T09:28:58,42.805,6.029,4330,1995,200.634,61.353,13.285
2017-10-09T09:31:58,42.805,6.029,4330,1995,200.613,61.346,13.285
2017-10-09T09:34:58,42.805,6.029,4330,1995,200.729,61.382,13.285
2017-10-09T09:37:58,42.805,6.029,4330,1995,200.634,61.353,13.285
2017-10-09T09:40:58,42.805,6.029,4330,1995,200.636,61.353,13.285
2017-10-09T09:43:58,42.805,6.029,4330,1995,200.675,61.365,13.285
2017-10-09T09:46:58,42.805,6.029,4330,1995,200.566,61.332,13.285
2017-10-09T09:49:58,42.805,6.029,4330,1995,200.617,61.347,13.285
2017-10-09T09:52:58,42.805,6.029,4330,1995,200.703,61.374,13.285
2017-10-09T09:55:58,42.805,6.029,4330,1995,200.615,61.347,13.285
2017-10-09T09:58:58,42.805,6.029,4330,1995,200.607,61.344,13.285
2017-10-09T10:01:58,42.805,6.029,4330,1995,200.642,61.355,13.285
2017-10-09T10:04:58,42.805,6.029,4330,1995,200.625,61.350,13.285
2017-10-09T10:07:58,42.805,6.029,4330,1995,200.586,61.338,13.285
2017-10-09T10:10:58,42.805,6.029,4330,1995,200.636,61.353,13.285
2017-10-09T10:13:58,42.805,6.029,4330,1995,200.677,61.366,13.285
2017-10-09T10:16:58,42.805,6.029,4330,1995,200.626,61.350,13.285
2017-10-09T10:19:58,42.805,6.029,4330,1995,200.524,61.319,13.285
2017-10-09T10:22:58,42.805,6.029,4330,1995,200.683,61.368,13.285
2017-10-09T10:25:58,42.805,6.029,4330,1995,200.633,61.352,13.285
2017-10-09T10:28:58,42.805,6.029,4330,1995,200.690,61.370,13.285
2017-10-09T10:31:58,42.805,6.029,4330,1995,200.570,61.333,13.285
2017-10-09T10:34:58,42.805,6.029,4330,1995,200.627,61.350,13.285
2017-10-09T10:37:58,42.805,6.029,4330,1995,200.623,61.349,13.285
2017-10-09T10:40:58,42.805,6.029,4330,1995,200.574,61.334,13.285
2017-10-09T10:43:58,42.805,6.029,4330,1995,200.604,61.343,13.285
2017-10-09T10:46:58,42.805,6.029,4330,1995,200.702,61.373,13.285
2017-10-09T10:49:58,42.805,6.029,4330,1995,200.654,61.359,13.285
2017-10-09T10:52:58,42.805,6.029,4330,1995,200.704,61.374,13.285
2017-10-09T10:55:58,42.805,6.029,4330,1995,200.633,61.352,13.285
2017-10-09T10:58:58,42.805,6.029,4330,1995,200.654,61.359,13.285
2017-10-09T11:01:58,42.805,6.029,4330,1995,200.676,61.365,13.285
2017-10-09T11:04:58,42.805,6.029,4330,1995,200.616,61.347,13.285
2017-10-09T11:07:58,42.805,6.029,4330,1995,200.650,61.357,13.285
2017-10-09T11:10:58,42.805,6.029,4330,1995,200.602,61.342,13.285
2017-10-09T11:13:58,42.805,6.029,4330,1995,200.589,61.339,13.285
2017-10-09T11:16:58,42.805,6.029,4330,1995,200.669,61.363,13.285
2017-10-09T11:19:58,42.805,6.029,4330,1995,200.641,61.354,13.285
2017-10-09T11:22:58,42.805,6.029,4330,1995,200.606,61.344,13.285
2017-10-09T11:25:58,42.805,6.029,4330,1995,200.632,61.352,13.285
2017-10-09T11:28:58,42.805,6.029,4330,1995,200.666,61.362,13.285
2017-10-09T11:31:58,42.805,6.029,4330,1995,200.650,61.357,13.285
2017-10-09T11:34:58,42.805,6.029,4330,1995,200.625,61.350,13.285
2017-10-09T11:37:58,42.805,6.029,4330,1995,200.638,61.353,13.285
2017-10-09T11:40:58,42.805,6.029,4330,1995,200.592,61.340,13.285
2017-10-09T11:43:58,42.805,6.029,4330,1995,200.590,61.339,13.285
2017-10-09T11:46:58,42.805,6.029,4330,1995,200.552,61.327,13.285
2017-10-09T11:49:58,42.805,6.029,4330,1995,200.577,61.335,13.285
2017-10-09T11:52:58,42.805,6.029,4330,1995,200.546,61.326,13.285
2017-10-09T11:55:58,42.805,6.029,4330,1995,200.543,61.325,13.285
2017-10-09T11:58:58,42.805,6.029,4330,1995,200.494,61.310,13.285
2017-10-09T12:01:58,42.805,6.029,4330,1995,200.507,61.314,13.285
2017-10-09T12:04:58,42.805,6.029,4330,1995,200.530,61.321,13.285
2017-10-09T12:07:58,42.805,6.029,4330,1995,200.533,61.322,13.285
2017-10-09T12:10:58,42.805,6.029,4330,1995,200.528,61.320,13.285
2017-10-09T12:13:58,42.805,6.029,4330,1995,200.498,61.311,13.285
2017-10-09T12:16:58,42.805,6.029,4330,1995,200.489,61.308,13.285
2017-10-09T12:19:58,42.805,6.029,4330,1995,200.434,61.291,13.285
2017-10-09T12:22:58,42.805,6.029,4330,1995,200.420,61.287,13.285
2017-10-09T12:25:58,42.805,6.029,4330,1995,200.499,61.311,13.285
2017-10-09T12:28:58,42.805,6.029,4330,1995,200.474,61.303,13.285
2017-10-09T12:31:58,42.805,6.029,4330,1995,200.417,61.286,13.285
2017-10-09T12:34:58,42.805,6.029,4330,1995,200.499,61.311,13.285
2017-10-09T12:37:58,42.805,6.029,4330,1995,200.475,61.304,13.285
2017-10-09T12:40:58,42.805,6.029,4330,1995,200.451,61.297,13.285
2017-10-09T12:43:58,42.805,6.029,4330,1995,200.410,61.284,13.285
2017-10-09T12:46:58,42.805,6.029,4330,1995,200.365,61.270,13.285
2017-10-09T12:49:58,42.805,6.029,4330,1995,200.284,61.246,13.285
2017-10-09T12:52:58,42.805,6.029,4330,1995,200.273,61.242,13.285
2017-10-09T12:55:58,42.805,6.029,4330,1995,200.231,61.229,13.285
2017-10-09T12:58:58,42.805,6.029,4330,1995,200.300,61.250,13.285
2017-10-09T13:01:58,42.805,6.029,4330,1995,200.334,61.261,13.285
2017-10-09T13:04:58,42.805,6.029,4330,1995,200.306,61.252,13.285
2017-10-09T13:07:58,42.805,6.029,4330,1995,200.377,61.274,13.285
2017-10-09T13:10:58,42.805,6.029,4330,1995,200.334,61.261,13.285
2017-10-09T13:13:58,42.805,6.029,4330,1995,200.345,61.264,13.285
2017-10-09T13:16:58,42.805,6.029,4330,1995,200.289,61.247,13.285
2017-10-09T13:19:58,42.805,6.029,4330,1995,200.361,61.269,13.285
2017-10-09T13:22:58,42.805,6.029,4330,1995,200.403,61.282,13.285
2017-10-09T13:25:58,42.805,6.029,4330,1995,200.300,61.251,13.285
2017-10-09T13:28:58,42.805,6.029,4330,1995,200.317,61.255,13.285
2017-10-09T13:31:58,42.805,6.029,4330,1995,200.327,61.259,13.285
2017-10-09T13:34:58,42.805,6.029,4330,1995,200.287,61.246,13.285
2017-10-09T13:37:58,42.805,6.029,4330,1995,200.295,61.249,13.285
2017-10-09T13:40:58,42.805,6.029,4330,1995,200.264,61.239,13.285
2017-10-09T13:43:58,42.805,6.029,4330,1995,200.269,61.241,13.285
2017-10-09T13:46:58,42.805,6.029,4330,1995,200.244,61.233,13.285
2017-10-09T13:49:58,42.805,6.029,4330,1995,200.252,61.236,13.285
2017-10-09T13:52:58,42.805,6.029,4330,1995,200.246,61.234,13.285
2017-10-09T13:55:58,42.805,6.029,4330,1995,200.286,61.246,13.285
2017-10-09T13:58:58,42.805,6.029,4330,1995,200.239,61.232,13.285
2017-10-09T14:01:58,42.805,6.029,4330,1995,200.257,61.237,13.285
2017-10-09T14:04:58,42.805,6.029,4330,1995,200.377,61.274,13.285
2017-10-09T14:07:58,42.805,6.029,4330,1995,200.314,61.255,13.285
2017-10-09T14:10:58,42.805,6.029,4330,1995,200.290,61.247,13.285
2017-10-09T14:13:58,42.805,6.029,4330,1995,200.295,61.249,13.285
2017-10-09T14:16:58,42.805,6.029,4330,1995,200.317,61.256,13.285
2017-10-09T14:19:58,42.805,6.029,4330,1995,200.322,61.257,13.285
2017-10-09T14:22:58,42.805,6.029,4330,1995,200.291,61.247,13.285
2017-10-09T14:25:58,42.805,6.029,4330,1995,200.220,61.226,13.285
2017-10-09T14:28:58,42.805,6.029,4330,1995,200.273,61.242,13.285
2017-10-09T14:31:58,42.805,6.029,4330,1995,200.238,61.231,13.285
2017-10-09T14:34:58,42.805,6.029,4330,1995,200.201,61.220,13.285
2017-10-09T14:37:58,42.805,6.029,4330,1995,200.248,61.235,13.285
2017-10-09T14:40:58,42.805,6.029,4330,1995,200.293,61.248,13.285
2017-10-09T14:43:58,42.805,6.029,4330,1995,200.290,61.247,13.285
2017-10-09T14:46:58,42.805,6.029,4330,1995,200.236,61.231,13.285
2017-10-09T14:49:58,42.805,6.029,4330,1995,200.275,61.243,13.285
2017-10-09T14:52:58,42.805,6.029,4330,1995,200.285,61.246,13.285
2017-10-09T14:55:58,42.805,6.029,4330,1995,200.298,61.250,13.285
2017-10-09T14:58:58,42.805,6.029,4330,1995,200.306,61.252,13.285
2017-10-09T15:01:58,42.805,6.029,4330,1995,200.301,61.251,13.285
2017-10-09T15:04:58,42.805,6.029,4330,1995,200.320,61.256,13.285
2017-10-09T15:07:58,42.805,6.029,4330,1995,200.350,61.265,13.285
2017-10-09T15:10:58,42.805,6.029,4330,1995,200.372,61.272,13.285
2017-10-09T15:13:58,42.805,6.029,4330,1995,200.315,61.255,13.285
2017-10-09T15:16:58,42.805,6.029,4330,1995,200.287,61.246,13.285
2017-10-09T15:19:58,42.805,6.029,4330,1995,200.273,61.242,13.285
2017-10-09T15:22:58,42.805,6.029,4330,1995,200.296,61.249,13.285
2017-10-09T15:25:58,42.805,6.029,4330,1995,200.382,61.275,13.285
2017-10-09T15:28:58,42.805,6.029,4330,1995,200.305,61.252,13.285
2017-10-09T15:31:58,42.805,6.029,4330,1995,200.275,61.243,13.285
2017-10-09T15:34:58,42.805,6.029,4330,1995,200.351,61.266,13.285
2017-10-09T15:37:58,42.805,6.029,4330,1995,200.291,61.248,13.285
2017-10-09T15:40:58,42.805,6.029,4330,1995,200.280,61.244,13.285
2017-10-09T15:43:58,42.805,6.029,4330,1995,200.273,61.242,13.285
2017-10-09T15:46:58,42.805,6.029,4330,1995,200.328,61.259,13.285
2017-10-09T15:49:58,42.805,6.029,4330,1995,200.344,61.264,13.285
2017-10-09T15:52:58,42.805,6.029,4330,1995,200.345,61.264,13.285
2017-10-09T15:55:58,42.805,6.029,4330,1995,200.340,61.263,13.285
2017-10-09T15:58:58,42.805,6.029,4330,1995,200.308,61.253,13.285
2017-10-09T16:01:58,42.805,6.029,4330,1995,200.269,61.241,13.285
2017-10-09T16:04:58,42.805,6.029,4330,1995,200.298,61.250,13.285
2017-10-09T16:07:58,42.805,6.029,4330,1995,200.301,61.251,13.285
2017-10-09T16:10:58,42.805,6.029,4330,1995,200.329,61.259,13.285
2017-10-09T16:13:58,42.805,6.029,4330,1995,200.297,61.249,13.285
2017-10-09T16:16:58,42.805,6.029,4330,1995,200.302,61.251,13.285
2017-10-09T16:19:58,42.805,6.029,4330,1995,200.317,61.256,13.285
2017-10-09T16:22:58,42.805,6.029,4330,1995,200.291,61.247,13.285
2017-10-09T16:25:58,42.805,6.029,4330,1995,200.242,61.232,13.285
2017-10-09T16:28:58,42.805,6.029,4330,1995,200.294,61.248,13.285
2017-10-09T16:31:58,42.805,6.029,4330,1995,200.330,61.259,13.285
2017-10-09T16:34:58,42.805,6.029,4330,1995,200.436,61.292,13.285
2017-10-09T16:37:58,42.805,6.029,4330,1995,200.332,61.260,13.285
2017-10-09T16:40:58,42.805,6.029,4330,1995,200.255,61.237,13.285
2017-10-09T16:43:58,42.805,6.029,4330,1995,200.389,61.277,13.285
2017-10-09T16:46:58,42.805,6.029,4330,1995,200.395,61.279,13.285
2017-10-09T16:49:58,42.805,6.029,4330,1995,200.406,61.283,13.285
2017-10-09T16:52:58,42.805,6.029,4330,1995,200.353,61.267,13.285
2017-10-09T16:55:58,42.805,6.029,4330,1995,200.375,61.273,13.285
2017-10-09T16:58:58,42.805,6.029,4330,1995,200.387,61.277,13.285
2017-10-09T17:01:58,42.805,6.029,4330,1995,200.280,61.244,13.285
2017-10-09T17:04:58,42.805,6.029,4330,1995,200.314,61.254,13.285
2017-10-09T17:07:58,42.805,6.029,4330,1995,200.333,61.261,13.285
2017-10-09T17:10:58,42.805,6.029,4330,1995,200.285,61.246,13.285
2017-10-09T17:13:58,42.805,6.029,4330,1995,200.269,61.241,13.285
2017-10-09T17:16:58,42.805,6.029,4330,1995,200.355,61.267,13.285
2017-10-09T17:19:58,42.805,6.029,4330,1995,200.381,61.275,13.285
2017-10-09T17:22:58,42.805,6.029,4330,1995,200.366,61.270,13.285
2017-10-09T17:25:58,42.805,6.029,4330,1995,200.348,61.265,13.285
2017-10-09T17:28:58,42.805,6.029,4330,1995,200.337,61.261,13.285
2017-10-09T17:31:58,42.805,6.029,4330,1995,200.388,61.277,13.285
2017-10-09T17:34:58,42.805,6.029,4330,1995,200.327,61.259,13.285
2017-10-09T17:37:58,42.805,6.029,4330,1995,200.361,61.269,13.285
2017-10-09T17:40:58,42.805,6.029,4330,1995,200.376,61.273,13.285
2017-10-09T17:43:58,42.805,6.029,4330,1995,200.311,61.253,13.285
2017-10-09T17:46:58,42.805,6.029,4330,1995,200.386,61.276,13.285
2017-10-09T17:49:58,42.805,6.029,4330,1995,200.351,61.266,13.285
2017-10-09T17:52:58,42.805,6.029,4330,1995,200.350,61.266,13.285
2017-10-09T17:55:58,42.805,6.029,4330,1995,200.260,61.238,13.285
2017-10-09T17:58:58,42.805,6.029,4330,1995,200.354,61.267,13.285
2017-10-09T18:01:58,42.805,6.029,4330,1995,200.370,61.272,13.285
2017-10-09T18:04:58,42.805,6.029,4330,1995,200.309,61.253,13.285
2017-10-09T18:07:58,42.805,6.029,4330,1995,200.300,61.250,13.285